Year,Month,Day,Hour,Minute,Value (Times are PST for temperature in C)
2021,08,07,00,00,15.60
2021,08,07,00,01,15.50
2021,08,07,00,02,15.50
2021,08,07,00,03,15.50
2021,08,07,00,04,15.50
2021,08,07,00,05,15.50
2021,08,07,00,06,15.50
2021,08,07,00,07,15.50
2021,08,07,00,08,15.50
2021,08,07,00,09,15.50
2021,08,07,00,10,15.50
2021,08,07,00,11,15.50
2021,08,07,00,12,15.50
2021,08,07,00,13,15.50
2021,08,07,00,14,15.50
2021,08,07,00,15,15.50
2021,08,07,00,16,15.50
2021,08,07,00,17,15.50
2021,08,07,00,18,15.50
2021,08,07,00,19,15.50
2021,08,07,00,20,15.50
2021,08,07,00,21,15.50
2021,08,07,00,22,15.50
2021,08,07,00,23,15.50
2021,08,07,00,24,15.50
2021,08,07,00,25,15.50
2021,08,07,00,26,15.50
2021,08,07,00,27,15.50
2021,08,07,00,28,15.50
2021,08,07,00,29,15.40
2021,08,07,00,30,15.40
2021,08,07,00,31,15.40
2021,08,07,00,32,15.40
2021,08,07,00,33,15.40
2021,08,07,00,34,15.40
2021,08,07,00,35,15.40
2021,08,07,00,36,15.40
2021,08,07,00,37,15.40
2021,08,07,00,38,15.40
2021,08,07,00,39,15.40
2021,08,07,00,40,15.40
2021,08,07,00,41,15.40
2021,08,07,00,42,15.40
2021,08,07,00,43,15.40
2021,08,07,00,44,15.40
2021,08,07,00,45,15.30
2021,08,07,00,46,15.30
2021,08,07,00,47,15.30
2021,08,07,00,48,15.30
2021,08,07,00,49,15.30
2021,08,07,00,50,15.30
2021,08,07,00,51,15.30
2021,08,07,00,52,15.30
2021,08,07,00,53,15.30
2021,08,07,00,54,15.30
2021,08,07,00,55,15.30
2021,08,07,00,56,15.30
2021,08,07,00,57,15.30
2021,08,07,00,58,15.30
2021,08,07,00,59,15.30
2021,08,07,01,00,15.30
2021,08,07,01,01,15.30
2021,08,07,01,02,15.30
2021,08,07,01,03,15.30
2021,08,07,01,04,15.30
2021,08,07,01,05,15.30
2021,08,07,01,06,15.30
2021,08,07,01,07,15.30
2021,08,07,01,08,15.30
2021,08,07,01,09,15.30
2021,08,07,01,10,15.30
2021,08,07,01,11,15.30
2021,08,07,01,12,15.30
2021,08,07,01,13,15.30
2021,08,07,01,14,15.20
2021,08,07,01,15,15.20
2021,08,07,01,16,15.20
2021,08,07,01,17,15.20
2021,08,07,01,18,15.20
2021,08,07,01,19,15.20
2021,08,07,01,20,15.20
2021,08,07,01,21,15.20
2021,08,07,01,22,15.10
2021,08,07,01,23,15.10
2021,08,07,01,24,15.10
2021,08,07,01,25,15.10
2021,08,07,01,26,15.10
2021,08,07,01,27,15.10
2021,08,07,01,28,15.10
2021,08,07,01,29,15.10
2021,08,07,01,30,15.10
2021,08,07,01,31,15.10
2021,08,07,01,32,15.10
2021,08,07,01,33,15.10
2021,08,07,01,34,15.10
2021,08,07,01,35,15.10
2021,08,07,01,36,15.10
2021,08,07,01,37,15.10
2021,08,07,01,38,15.10
2021,08,07,01,39,15.10
2021,08,07,01,40,15.00
2021,08,07,01,41,15.00
2021,08,07,01,42,15.00
2021,08,07,01,43,14.90
2021,08,07,01,44,14.90
2021,08,07,01,45,14.90
2021,08,07,01,46,14.90
2021,08,07,01,47,14.80
2021,08,07,01,48,14.80
2021,08,07,01,49,14.70
2021,08,07,01,50,14.70
2021,08,07,01,51,14.70
2021,08,07,01,52,14.70
2021,08,07,01,53,14.60
2021,08,07,01,54,14.60
2021,08,07,01,55,14.50
2021,08,07,01,56,14.50
2021,08,07,01,57,14.50
2021,08,07,01,58,14.40
2021,08,07,01,59,14.40
2021,08,07,02,00,14.40
2021,08,07,02,01,14.40
2021,08,07,02,02,14.40
2021,08,07,02,03,14.40
2021,08,07,02,04,14.40
2021,08,07,02,05,14.30
2021,08,07,02,06,14.30
2021,08,07,02,07,14.30
2021,08,07,02,08,14.30
2021,08,07,02,09,14.30
2021,08,07,02,10,14.30
2021,08,07,02,11,14.30
2021,08,07,02,12,14.30
2021,08,07,02,13,14.30
2021,08,07,02,14,14.30
2021,08,07,02,15,14.30
2021,08,07,02,16,14.20
2021,08,07,02,17,14.20
2021,08,07,02,18,14.20
2021,08,07,02,19,14.10
2021,08,07,02,20,14.10
2021,08,07,02,21,14.00
2021,08,07,02,22,14.00
2021,08,07,02,23,13.90
2021,08,07,02,24,13.90
2021,08,07,02,25,13.90
2021,08,07,02,26,13.80
2021,08,07,02,27,13.80
2021,08,07,02,28,13.80
2021,08,07,02,29,13.80
2021,08,07,02,30,13.80
2021,08,07,02,31,13.80
2021,08,07,02,32,13.80
2021,08,07,02,33,13.80
2021,08,07,02,34,13.80
2021,08,07,02,35,13.80
2021,08,07,02,36,13.70
2021,08,07,02,37,13.70
2021,08,07,02,38,13.70
2021,08,07,02,39,13.70
2021,08,07,02,40,13.70
2021,08,07,02,41,13.70
2021,08,07,02,42,13.70
2021,08,07,02,43,13.70
2021,08,07,02,44,13.70
2021,08,07,02,45,13.70
2021,08,07,02,46,13.70
2021,08,07,02,47,13.70
2021,08,07,02,48,13.70
2021,08,07,02,49,13.70
2021,08,07,02,50,13.70
2021,08,07,02,51,13.70
2021,08,07,02,52,13.70
2021,08,07,02,53,13.70
2021,08,07,02,54,13.60
2021,08,07,02,55,13.60
2021,08,07,02,56,13.60
2021,08,07,02,57,13.60
2021,08,07,02,58,13.60
2021,08,07,02,59,13.60
2021,08,07,03,00,13.60
2021,08,07,03,01,13.60
2021,08,07,03,02,13.60
2021,08,07,03,03,13.50
2021,08,07,03,04,13.50
2021,08,07,03,05,13.40
2021,08,07,03,06,13.40
2021,08,07,03,07,13.40
2021,08,07,03,08,13.40
2021,08,07,03,09,13.30
2021,08,07,03,10,13.30
2021,08,07,03,11,13.30
2021,08,07,03,12,13.20
2021,08,07,03,13,13.20
2021,08,07,03,14,13.20
2021,08,07,03,15,13.20
2021,08,07,03,16,13.10
2021,08,07,03,17,13.10
2021,08,07,03,18,13.10
2021,08,07,03,19,13.10
2021,08,07,03,20,13.10
2021,08,07,03,21,13.10
2021,08,07,03,22,13.00
2021,08,07,03,23,13.00
2021,08,07,03,24,13.00
2021,08,07,03,25,13.00
2021,08,07,03,26,13.00
2021,08,07,06,34,12.80
2021,08,07,06,35,12.80
2021,08,07,06,36,12.80
2021,08,07,06,37,12.80
2021,08,07,06,38,12.80
2021,08,07,06,39,12.80
2021,08,07,06,40,12.80
2021,08,07,06,41,12.80
2021,08,07,06,42,12.80
2021,08,07,06,43,12.80
2021,08,07,06,44,12.80
2021,08,07,06,45,12.80
2021,08,07,06,46,12.80
2021,08,07,06,47,12.80
2021,08,07,06,48,12.80
2021,08,07,06,49,12.80
2021,08,07,06,50,12.80
2021,08,07,06,51,12.80
2021,08,07,06,52,12.80
2021,08,07,06,53,12.80
2021,08,07,06,54,12.80
2021,08,07,06,55,12.80
2021,08,07,06,56,12.80
2021,08,07,06,57,12.80
2021,08,07,06,58,12.80
2021,08,07,06,59,12.80
2021,08,07,07,00,12.90
2021,08,07,07,01,12.90
2021,08,07,07,02,12.90
2021,08,07,07,03,12.90
2021,08,07,07,04,12.90
2021,08,07,07,05,12.90
2021,08,07,07,06,12.90
2021,08,07,07,07,12.90
2021,08,07,07,08,12.90
2021,08,07,07,09,12.90
2021,08,07,07,10,12.90
2021,08,07,07,11,13.00
2021,08,07,07,12,13.00
2021,08,07,07,13,13.00
2021,08,07,07,14,13.00
2021,08,07,07,15,13.00
2021,08,07,07,16,13.00
2021,08,07,07,17,13.00
2021,08,07,07,18,13.00
2021,08,07,07,19,13.00
2021,08,07,07,20,13.00
2021,08,07,07,21,13.00
2021,08,07,07,22,13.00
2021,08,07,07,23,13.00
2021,08,07,07,24,13.00
2021,08,07,07,25,13.00
2021,08,07,07,26,13.00
2021,08,07,07,27,13.10
2021,08,07,07,28,13.10
2021,08,07,07,29,13.10
2021,08,07,07,30,13.10
2021,08,07,07,31,13.10
2021,08,07,07,32,13.10
2021,08,07,07,33,13.10
2021,08,07,07,34,13.10
2021,08,07,07,35,13.20
2021,08,07,07,36,13.10
2021,08,07,07,37,13.10
2021,08,07,07,38,13.20
2021,08,07,07,39,13.20
2021,08,07,07,40,13.20
2021,08,07,07,41,13.20
2021,08,07,07,42,13.20
2021,08,07,07,43,13.20
2021,08,07,07,44,13.20
2021,08,07,07,45,13.20
2021,08,07,07,46,13.20
2021,08,07,07,47,13.20
2021,08,07,07,48,13.20
2021,08,07,07,49,13.20
2021,08,07,07,50,13.20
2021,08,07,07,51,13.20
2021,08,07,07,52,13.20
2021,08,07,07,53,13.20
2021,08,07,07,54,13.20
2021,08,07,07,55,13.30
2021,08,07,07,56,13.30
2021,08,07,07,57,13.30
2021,08,07,07,58,13.30
2021,08,07,07,59,13.30
2021,08,07,08,00,13.30
2021,08,07,08,01,13.30
2021,08,07,08,02,13.30
2021,08,07,08,03,13.30
2021,08,07,08,04,13.30
2021,08,07,08,05,13.30
2021,08,07,08,06,13.30
2021,08,07,08,07,13.30
2021,08,07,08,08,13.30
2021,08,07,08,09,13.30
2021,08,07,08,10,13.30
2021,08,07,08,11,13.30
2021,08,07,08,12,13.30
2021,08,07,08,13,13.30
2021,08,07,08,14,13.30
2021,08,07,08,15,13.30
2021,08,07,08,16,13.40
2021,08,07,08,17,13.40
2021,08,07,08,18,13.40
2021,08,07,08,19,13.40
2021,08,07,08,20,13.50
2021,08,07,08,21,13.50
2021,08,07,08,22,13.50
2021,08,07,08,23,13.50
2021,08,07,08,24,13.60
2021,08,07,08,25,13.60
2021,08,07,08,26,13.60
2021,08,07,08,27,13.60
2021,08,07,08,28,13.60
2021,08,07,08,29,13.60
2021,08,07,08,30,13.60
2021,08,07,08,31,13.70
2021,08,07,08,32,13.70
2021,08,07,08,33,13.70
2021,08,07,08,34,13.70
2021,08,07,08,35,13.70
2021,08,07,08,36,13.70
2021,08,07,08,37,13.70
2021,08,07,08,38,13.70
2021,08,07,08,39,13.80
2021,08,07,08,40,13.80
2021,08,07,08,41,13.80
2021,08,07,08,42,13.90
2021,08,07,08,43,13.90
2021,08,07,08,44,13.90
2021,08,07,08,45,13.90
2021,08,07,08,46,14.00
2021,08,07,08,47,14.00
2021,08,07,08,48,14.00
2021,08,07,08,49,14.00
2021,08,07,08,50,14.10
2021,08,07,08,51,14.10
2021,08,07,08,52,14.10
2021,08,07,08,53,14.10
2021,08,07,08,54,14.10
2021,08,07,08,55,14.10
2021,08,07,08,56,14.10
2021,08,07,08,57,14.10
2021,08,07,08,58,14.10
2021,08,07,08,59,14.10
2021,08,07,09,00,14.10
2021,08,07,09,01,14.10
2021,08,07,09,02,14.10
2021,08,07,09,03,14.10
2021,08,07,09,04,14.10
2021,08,07,09,05,14.10
2021,08,07,09,06,14.10
2021,08,07,09,07,14.00
2021,08,07,09,08,14.00
2021,08,07,09,09,14.00
2021,08,07,09,10,14.00
2021,08,07,09,11,14.00
2021,08,07,09,12,14.10
2021,08,07,09,13,14.10
2021,08,07,09,14,14.10
2021,08,07,09,15,14.10
2021,08,07,09,16,14.10
2021,08,07,09,17,14.20
2021,08,07,09,18,14.20
2021,08,07,09,19,14.20
2021,08,07,09,20,14.20
2021,08,07,09,21,14.20
2021,08,07,09,22,14.30
2021,08,07,09,23,14.30
2021,08,07,09,24,14.30
2021,08,07,09,25,14.30
2021,08,07,09,26,14.30
2021,08,07,09,27,14.30
2021,08,07,09,28,14.30
2021,08,07,09,29,14.30
2021,08,07,09,30,14.30
2021,08,07,09,31,14.30
2021,08,07,09,32,14.30
2021,08,07,09,33,14.30
2021,08,07,09,34,14.30
2021,08,07,09,35,14.30
2021,08,07,09,36,14.30
2021,08,07,09,37,14.30
2021,08,07,09,38,14.30
2021,08,07,09,39,14.30
2021,08,07,09,40,14.30
2021,08,07,09,41,14.30
2021,08,07,09,42,14.40
2021,08,07,09,43,14.40
2021,08,07,09,44,14.30
2021,08,07,09,45,14.30
2021,08,07,09,46,14.30
2021,08,07,09,47,14.20
2021,08,07,09,48,14.20
2021,08,07,09,49,14.20
2021,08,07,09,50,14.20
2021,08,07,09,51,14.20
2021,08,07,09,52,14.20
2021,08,07,09,53,14.20
2021,08,07,09,54,14.30
2021,08,07,09,55,14.20
2021,08,07,09,56,14.20
2021,08,07,09,57,14.20
2021,08,07,09,58,14.20
2021,08,07,09,59,14.20
2021,08,07,10,00,14.20
2021,08,07,10,01,14.20
2021,08,07,10,02,14.20
2021,08,07,10,03,14.20
2021,08,07,10,04,14.20
2021,08,07,10,05,14.20
2021,08,07,10,06,14.20
2021,08,07,10,07,14.20
2021,08,07,10,08,14.20
2021,08,07,10,09,14.30
2021,08,07,10,10,14.30
2021,08,07,10,11,14.30
2021,08,07,10,12,14.30
2021,08,07,10,13,14.30
2021,08,07,10,14,14.30
2021,08,07,10,15,14.30
2021,08,07,10,16,14.30
2021,08,07,10,17,14.30
2021,08,07,10,18,14.20
2021,08,07,10,19,14.30
2021,08,07,10,20,14.30
2021,08,07,10,21,14.30
2021,08,07,10,22,14.30
2021,08,07,10,23,14.30
2021,08,07,10,24,14.30
2021,08,07,10,25,14.30
2021,08,07,10,26,14.20
2021,08,07,10,27,14.20
2021,08,07,10,28,14.20
2021,08,07,10,29,14.20
2021,08,07,10,30,14.20
2021,08,07,10,31,14.20
2021,08,07,10,32,14.20
2021,08,07,10,33,14.20
2021,08,07,10,34,14.20
2021,08,07,10,35,14.20
2021,08,07,10,36,14.20
2021,08,07,10,37,14.20
2021,08,07,10,38,14.20
2021,08,07,10,39,14.20
2021,08,07,10,40,14.20
2021,08,07,10,41,14.20
2021,08,07,10,42,14.10
2021,08,07,10,43,14.10
2021,08,07,10,44,14.10
2021,08,07,10,45,14.20
2021,08,07,10,46,14.20
2021,08,07,10,47,14.20
2021,08,07,10,48,14.20
2021,08,07,10,49,14.20
2021,08,07,10,50,14.20
2021,08,07,10,51,14.20
2021,08,07,10,52,14.20
2021,08,07,10,53,14.20
2021,08,07,10,54,14.20
2021,08,07,10,55,14.20
2021,08,07,10,56,14.30
2021,08,07,10,57,14.30
2021,08,07,10,58,14.30
2021,08,07,10,59,14.40
2021,08,07,11,00,14.40
2021,08,07,11,01,14.40
2021,08,07,11,02,14.40
2021,08,07,11,03,14.50
2021,08,07,11,04,14.50
2021,08,07,11,05,14.60
2021,08,07,11,06,14.60
2021,08,07,11,07,14.60
2021,08,07,11,08,14.70
2021,08,07,11,09,14.70
2021,08,07,11,10,14.70
2021,08,07,11,11,14.70
2021,08,07,11,12,14.80
2021,08,07,11,13,14.80
2021,08,07,11,14,14.80
2021,08,07,11,15,14.80
2021,08,07,11,16,14.80
2021,08,07,11,17,14.90
2021,08,07,11,18,14.90
2021,08,07,11,19,15.00
2021,08,07,11,20,15.00
2021,08,07,11,21,15.00
2021,08,07,11,22,15.10
2021,08,07,11,23,15.10
2021,08,07,11,24,15.20
2021,08,07,11,25,15.20
2021,08,07,11,26,15.20
2021,08,07,11,27,15.20
2021,08,07,11,28,15.20
2021,08,07,11,29,15.20
2021,08,07,11,30,15.20
2021,08,07,11,31,15.20
2021,08,07,11,32,15.20
2021,08,07,11,33,15.20
2021,08,07,11,34,15.10
2021,08,07,11,35,15.10
2021,08,07,11,36,15.10
2021,08,07,11,37,15.20
2021,08,07,11,38,15.20
2021,08,07,11,39,15.20
2021,08,07,11,40,15.20
2021,08,07,11,41,15.20
2021,08,07,11,42,15.20
2021,08,07,11,43,15.20
2021,08,07,11,44,15.20
2021,08,07,11,45,15.20
2021,08,07,11,46,15.30
2021,08,07,11,47,15.30
2021,08,07,11,48,15.30
2021,08,07,11,49,15.30
2021,08,07,11,50,15.30
2021,08,07,11,51,15.30
2021,08,07,11,52,15.20
2021,08,07,11,53,15.20
2021,08,07,11,54,15.20
2021,08,07,11,55,15.20
2021,08,07,11,56,15.20
2021,08,07,11,57,15.20
2021,08,07,11,58,15.20
2021,08,07,11,59,15.10
2021,08,07,12,00,15.00
2021,08,07,12,01,15.00
2021,08,07,12,02,14.90
2021,08,07,12,03,14.90
2021,08,07,12,04,14.90
2021,08,07,12,05,14.80
2021,08,07,12,06,14.80
2021,08,07,12,07,14.80
2021,08,07,12,08,14.90
2021,08,07,12,09,14.90
2021,08,07,12,10,14.90
2021,08,07,12,11,15.00
2021,08,07,12,12,15.00
2021,08,07,12,13,15.10
2021,08,07,12,14,15.20
2021,08,07,12,15,15.20
2021,08,07,12,16,15.30
2021,08,07,12,17,15.30
2021,08,07,12,18,15.40
2021,08,07,12,19,15.50
2021,08,07,12,20,15.50
2021,08,07,12,21,15.60
2021,08,07,12,22,15.60
2021,08,07,12,23,15.60
2021,08,07,12,24,15.60
2021,08,07,12,25,15.60
2021,08,07,12,26,15.60
2021,08,07,12,27,15.60
2021,08,07,12,28,15.50
2021,08,07,12,29,15.40
2021,08,07,12,30,15.30
2021,08,07,12,31,15.30
2021,08,07,12,32,15.30
2021,08,07,12,33,15.30
2021,08,07,12,34,15.30
2021,08,07,12,35,15.30
2021,08,07,12,36,15.30
2021,08,07,12,37,15.30
2021,08,07,12,38,15.30
2021,08,07,12,39,15.30
2021,08,07,12,40,15.30
2021,08,07,12,41,15.30
2021,08,07,12,42,15.30
2021,08,07,12,43,15.30
2021,08,07,12,44,15.40
2021,08,07,12,45,15.40
2021,08,07,12,46,15.40
2021,08,07,12,47,15.40
2021,08,07,12,48,15.40
2021,08,07,12,49,15.50
2021,08,07,12,50,15.50
2021,08,07,12,51,15.50
2021,08,07,12,52,15.50
2021,08,07,12,53,15.50
2021,08,07,12,54,15.40
2021,08,07,12,55,15.30
2021,08,07,12,56,15.30
2021,08,07,12,57,15.20
2021,08,07,12,58,15.10
2021,08,07,12,59,15.10
2021,08,07,13,00,15.10
2021,08,07,13,01,15.10
2021,08,07,13,02,15.10
2021,08,07,13,03,15.10
2021,08,07,13,04,15.10
2021,08,07,13,05,15.10
2021,08,07,13,06,15.10
2021,08,07,13,07,15.10
2021,08,07,13,08,15.10
2021,08,07,13,09,15.10
2021,08,07,13,10,15.10
2021,08,07,13,11,15.20
2021,08,07,13,12,15.20
2021,08,07,13,13,15.20
2021,08,07,13,14,15.20
2021,08,07,13,15,15.10
2021,08,07,13,16,15.00
2021,08,07,13,17,15.00
2021,08,07,13,18,14.90
2021,08,07,13,19,14.90
2021,08,07,13,20,14.90
2021,08,07,13,21,14.90
2021,08,07,13,22,14.80
2021,08,07,13,23,14.80
2021,08,07,13,24,14.80
2021,08,07,13,25,14.80
2021,08,07,13,26,14.80
2021,08,07,13,27,14.80
2021,08,07,13,28,14.80
2021,08,07,13,29,14.70
2021,08,07,13,30,14.70
2021,08,07,13,31,14.70
2021,08,07,13,32,14.80
2021,08,07,13,33,14.80
2021,08,07,13,34,14.80
2021,08,07,13,35,14.80
2021,08,07,13,36,14.80
2021,08,07,13,37,14.80
2021,08,07,13,38,14.70
2021,08,07,13,39,14.60
2021,08,07,13,40,14.50
2021,08,07,13,41,14.40
2021,08,07,13,42,14.40
2021,08,07,13,43,14.40
2021,08,07,13,44,14.40
2021,08,07,13,45,14.40
2021,08,07,13,46,14.40
2021,08,07,13,47,14.40
2021,08,07,13,48,14.40
2021,08,07,13,49,14.40
2021,08,07,13,50,14.40
2021,08,07,13,51,14.50
2021,08,07,13,52,14.50
2021,08,07,13,53,14.60
2021,08,07,13,54,14.60
2021,08,07,13,55,14.70
2021,08,07,13,56,14.70
2021,08,07,13,57,14.70
2021,08,07,13,58,14.70
2021,08,07,13,59,14.70
2021,08,07,14,00,14.70
2021,08,07,14,01,14.70
2021,08,07,14,02,14.70
2021,08,07,14,03,14.80
2021,08,07,14,04,14.90
2021,08,07,14,05,15.00
2021,08,07,14,06,15.20
2021,08,07,14,07,15.40
2021,08,07,14,08,15.60
2021,08,07,14,09,15.70
2021,08,07,14,10,15.90
2021,08,07,14,11,16.00
2021,08,07,14,12,16.10
2021,08,07,14,13,16.10
2021,08,07,14,14,16.20
2021,08,07,14,15,16.30
2021,08,07,14,16,16.30
2021,08,07,14,17,16.40
2021,08,07,14,18,16.50
2021,08,07,14,19,16.40
2021,08,07,14,20,16.40
2021,08,07,14,21,16.40
2021,08,07,14,22,16.40
2021,08,07,14,23,16.50
2021,08,07,14,24,16.60
2021,08,07,14,25,16.60
2021,08,07,14,26,16.60
2021,08,07,14,27,16.60
2021,08,07,14,28,16.60
2021,08,07,14,29,16.60
2021,08,07,14,30,16.50
2021,08,07,14,31,16.40
2021,08,07,14,32,16.30
2021,08,07,14,33,16.20
2021,08,07,14,34,16.20
2021,08,07,14,35,16.10
2021,08,07,14,36,16.10
2021,08,07,14,37,16.10
2021,08,07,14,38,16.20
2021,08,07,14,39,16.20
2021,08,07,14,40,16.30
2021,08,07,14,41,16.40
2021,08,07,14,42,16.50
2021,08,07,14,43,16.50
2021,08,07,14,44,16.60
2021,08,07,14,45,16.60
2021,08,07,14,46,16.70
2021,08,07,14,47,16.80
2021,08,07,14,48,16.90
2021,08,07,14,49,16.90
2021,08,07,14,50,17.00
2021,08,07,14,51,17.10
2021,08,07,14,52,17.10
2021,08,07,14,53,17.10
2021,08,07,14,54,17.00
2021,08,07,14,55,16.90
2021,08,07,14,56,16.80
2021,08,07,14,57,16.80
2021,08,07,14,58,16.70
2021,08,07,14,59,16.60
2021,08,07,15,00,16.60
2021,08,07,15,01,16.60
2021,08,07,15,02,16.80
2021,08,07,15,03,16.90
2021,08,07,15,04,17.40
2021,08,07,15,05,17.90
2021,08,07,15,06,18.40
2021,08,07,15,07,18.90
2021,08,07,15,08,19.40
2021,08,07,15,09,19.80
2021,08,07,15,10,20.10
2021,08,07,15,11,20.40
2021,08,07,15,12,20.50
2021,08,07,15,13,20.70
2021,08,07,15,14,20.80
2021,08,07,15,15,21.00
2021,08,07,15,16,21.10
2021,08,07,15,17,21.20
2021,08,07,15,18,21.20
2021,08,07,15,19,21.30
2021,08,07,15,20,21.30
2021,08,07,15,21,21.30
2021,08,07,15,22,21.30
2021,08,07,15,23,21.40
2021,08,07,15,24,21.50
2021,08,07,15,25,21.50
2021,08,07,15,26,21.50
2021,08,07,15,27,21.50
2021,08,07,15,28,21.60
2021,08,07,15,29,21.60
2021,08,07,15,30,21.60
2021,08,07,15,31,21.60
2021,08,07,15,32,21.70
2021,08,07,15,33,21.70
2021,08,07,15,34,21.70
2021,08,07,15,35,21.70
2021,08,07,15,36,21.70
2021,08,07,15,37,21.70
2021,08,07,15,38,21.60
2021,08,07,15,39,21.60
2021,08,07,15,40,21.50
2021,08,07,15,41,21.40
2021,08,07,15,42,21.30
2021,08,07,15,43,21.20
2021,08,07,15,44,21.20
2021,08,07,15,45,21.10
2021,08,07,15,46,21.00
2021,08,07,15,47,20.90
2021,08,07,15,48,20.90
2021,08,07,15,49,20.70
2021,08,07,15,50,20.60
2021,08,07,15,51,20.50
2021,08,07,15,52,20.50
2021,08,07,15,53,20.40
2021,08,07,15,54,20.40
2021,08,07,15,55,20.30
2021,08,07,15,56,20.30
2021,08,07,15,57,20.30
2021,08,07,15,58,20.30
2021,08,07,15,59,20.30
2021,08,07,16,00,20.30
2021,08,07,16,01,20.30
2021,08,07,16,02,20.30
2021,08,07,16,03,20.30
2021,08,07,16,04,20.30
2021,08,07,16,05,20.30
2021,08,07,16,06,20.30
2021,08,07,16,07,20.30
2021,08,07,16,08,20.30
2021,08,07,16,09,20.30
2021,08,07,16,10,20.30
2021,08,07,16,11,20.30
2021,08,07,16,12,20.20
2021,08,07,16,13,20.20
2021,08,07,16,14,20.20
2021,08,07,16,15,20.20
2021,08,07,16,16,20.20
2021,08,07,16,17,20.20
2021,08,07,16,18,20.20
2021,08,07,16,19,20.20
2021,08,07,16,20,20.20
2021,08,07,16,21,20.20
2021,08,07,16,22,20.20
2021,08,07,16,23,20.20
2021,08,07,16,24,20.20
2021,08,07,16,25,20.20
2021,08,07,16,26,20.20
2021,08,07,16,27,20.20
2021,08,07,16,28,20.10
2021,08,07,16,29,20.10
2021,08,07,16,30,20.10
2021,08,07,16,31,20.10
2021,08,07,16,32,20.10
2021,08,07,16,33,20.10
2021,08,07,16,34,20.10
2021,08,07,16,35,20.20
2021,08,07,16,36,20.20
2021,08,07,16,37,20.20
2021,08,07,16,38,20.30
2021,08,07,16,39,20.30
2021,08,07,16,40,20.30
2021,08,07,16,41,20.30
2021,08,07,16,42,20.30
2021,08,07,16,43,20.30
2021,08,07,16,44,20.30
2021,08,07,16,45,20.30
2021,08,07,16,46,20.30
2021,08,07,16,47,20.30
2021,08,07,16,48,20.30
2021,08,07,16,49,20.30
2021,08,07,16,50,20.40
2021,08,07,16,51,20.40
2021,08,07,16,52,20.30
2021,08,07,16,53,20.30
2021,08,07,16,54,20.30
2021,08,07,16,55,20.30
2021,08,07,16,56,20.30
2021,08,07,16,57,20.30
2021,08,07,16,58,20.30
2021,08,07,16,59,20.30
2021,08,07,17,00,20.40
2021,08,07,17,01,20.40
2021,08,07,17,02,20.40
2021,08,07,17,03,20.40
2021,08,07,17,04,20.40
2021,08,07,17,05,20.40
2021,08,07,17,06,20.40
2021,08,07,17,07,20.40
2021,08,07,17,08,20.40
2021,08,07,17,09,20.40
2021,08,07,17,10,20.40
2021,08,07,17,11,20.40
2021,08,07,17,12,20.40
2021,08,07,17,13,20.40
2021,08,07,17,14,20.40
2021,08,07,17,15,20.40
2021,08,07,17,16,20.40
2021,08,07,17,17,20.40
2021,08,07,17,18,20.40
2021,08,07,17,19,20.50
2021,08,07,17,20,20.60
2021,08,07,17,21,20.60
2021,08,07,17,22,20.60
2021,08,07,17,23,20.60
2021,08,07,17,24,20.60
2021,08,07,17,25,20.60
2021,08,07,17,26,20.60
2021,08,07,17,27,20.60
2021,08,07,17,28,20.60
2021,08,07,17,29,20.60
2021,08,07,17,30,20.60
2021,08,07,17,31,20.60
2021,08,07,17,32,20.60
2021,08,07,17,33,20.60
2021,08,07,17,34,20.60
2021,08,07,17,35,20.60
2021,08,07,17,36,20.60
2021,08,07,17,37,20.60
2021,08,07,17,38,20.60
2021,08,07,17,39,20.50
2021,08,07,17,40,20.50
2021,08,07,17,41,20.50
2021,08,07,17,42,20.50
2021,08,07,17,43,20.40
2021,08,07,17,44,20.40
2021,08,07,17,45,20.40
2021,08,07,17,46,20.40
2021,08,07,17,47,20.40
2021,08,07,17,48,20.40
2021,08,07,17,49,20.40
2021,08,07,17,50,20.30
2021,08,07,17,51,20.30
2021,08,07,17,52,20.30
2021,08,07,17,53,20.30
2021,08,07,17,54,20.30
2021,08,07,17,55,20.30
2021,08,07,17,56,20.30
2021,08,07,17,57,20.30
2021,08,07,17,58,20.20
2021,08,07,17,59,20.20
2021,08,07,18,00,20.20
2021,08,07,18,01,20.20
2021,08,07,18,02,20.20
2021,08,07,18,03,20.20
2021,08,07,18,04,20.20
2021,08,07,18,05,20.20
2021,08,07,18,06,20.10
2021,08,07,18,07,20.10
2021,08,07,18,08,20.10
2021,08,07,18,09,20.00
2021,08,07,18,10,20.00
2021,08,07,18,11,20.10
2021,08,07,18,12,20.10
2021,08,07,18,13,20.10
2021,08,07,18,14,20.00
2021,08,07,18,15,20.00
2021,08,07,18,16,19.90
2021,08,07,18,17,19.80
2021,08,07,18,18,19.80
2021,08,07,18,19,19.70
2021,08,07,18,20,19.70
2021,08,07,18,21,19.70
2021,08,07,18,22,19.60
2021,08,07,18,23,19.60
2021,08,07,18,24,19.60
2021,08,07,18,25,19.60
2021,08,07,18,26,19.60
2021,08,07,18,27,19.60
2021,08,07,18,28,19.60
2021,08,07,18,29,19.60
2021,08,07,18,30,19.60
2021,08,07,18,31,19.70
2021,08,07,18,32,19.70
2021,08,07,18,33,19.70
2021,08,07,18,34,19.60
2021,08,07,18,35,19.60
2021,08,07,18,36,19.60
2021,08,07,18,37,19.60
2021,08,07,18,38,19.60
2021,08,07,18,39,19.60
2021,08,07,18,40,19.60
2021,08,07,18,41,19.50
2021,08,07,18,42,19.50
2021,08,07,18,43,19.40
2021,08,07,18,44,19.30
2021,08,07,18,45,19.20
2021,08,07,18,46,19.20
2021,08,07,18,47,19.10
2021,08,07,18,48,19.00
2021,08,07,18,49,19.00
2021,08,07,18,50,18.90
2021,08,07,18,51,18.90
2021,08,07,18,52,18.90
2021,08,07,18,53,18.90
2021,08,07,18,54,18.90
2021,08,07,18,55,18.90
2021,08,07,18,56,18.90
2021,08,07,18,57,18.90
2021,08,07,18,58,18.90
2021,08,07,18,59,18.90
2021,08,07,19,00,18.90
2021,08,07,19,01,18.90
2021,08,07,19,02,18.90
2021,08,07,19,03,18.90
2021,08,07,19,04,18.80
2021,08,07,19,05,18.80
2021,08,07,19,06,18.70
2021,08,07,19,07,18.70
2021,08,07,19,08,18.70
2021,08,07,19,09,18.70
2021,08,07,19,10,18.60
2021,08,07,19,11,18.60
2021,08,07,19,12,18.60
2021,08,07,19,13,18.50
2021,08,07,19,14,18.50
2021,08,07,19,15,18.50
2021,08,07,19,16,18.50
2021,08,07,19,17,18.50
2021,08,07,19,18,18.50
2021,08,07,19,19,18.50
2021,08,07,19,20,18.40
2021,08,07,19,21,18.40
2021,08,07,19,22,18.40
2021,08,07,19,23,18.40
2021,08,07,19,24,18.30
2021,08,07,19,25,18.30
2021,08,07,19,26,18.30
2021,08,07,19,27,18.30
2021,08,07,19,28,18.30
2021,08,07,19,29,18.30
2021,08,07,19,30,18.30
2021,08,07,19,31,18.30
2021,08,07,19,32,18.20
2021,08,07,19,33,18.20
2021,08,07,19,34,18.20
2021,08,07,19,35,18.20
2021,08,07,19,36,18.20
2021,08,07,19,37,18.20
2021,08,07,19,38,18.20
2021,08,07,19,39,18.10
2021,08,07,19,40,18.10
2021,08,07,19,41,18.00
2021,08,07,19,42,18.00
2021,08,07,19,43,17.90
2021,08,07,19,44,17.90
2021,08,07,19,45,17.80
2021,08,07,19,46,17.80
2021,08,07,19,47,17.70
2021,08,07,19,48,17.70
2021,08,07,19,49,17.60
2021,08,07,19,50,17.50
2021,08,07,19,51,17.50
2021,08,07,19,52,17.40
2021,08,07,19,53,17.40
2021,08,07,19,54,17.30
2021,08,07,19,55,17.30
2021,08,07,19,56,17.20
2021,08,07,19,57,17.20
2021,08,07,19,58,17.10
2021,08,07,19,59,17.00
2021,08,07,20,00,16.90
2021,08,07,20,01,16.80
2021,08,07,20,02,16.80
2021,08,07,20,03,16.70
2021,08,07,20,04,16.60
2021,08,07,20,05,16.50
2021,08,07,20,06,16.50
2021,08,07,20,07,16.40
2021,08,07,20,08,16.40
2021,08,07,20,09,16.30
2021,08,07,20,10,16.30
2021,08,07,20,11,16.30
2021,08,07,20,12,16.20
2021,08,07,20,13,16.20
2021,08,07,20,14,16.20
2021,08,07,20,15,16.20
2021,08,07,20,16,16.10
2021,08,07,20,17,16.10
2021,08,07,20,18,16.10
2021,08,07,20,19,16.10
2021,08,07,20,20,16.00
2021,08,07,20,21,16.00
2021,08,07,20,22,15.90
2021,08,07,20,23,15.90
2021,08,07,20,24,15.90
2021,08,07,20,25,15.90
2021,08,07,20,26,15.90